GFSSE_250_spd_231.txt.gz
Wind_Speed
64 63 63 64 64 64 64 64 64 65 64 62 63 62 61 61 61 62 61 59 60 58 57 57 60 60 60 59 58 59 57 57 59 58 55 55 53 53 51 52 51 52 51
69 67 67 65 65 60 56 59 60 60 60 64 66 66 66 66 65 65 67 63 62 62 61 59 58 60 62 61 60 60 59 60 58 58 59 58 56 55 58 55 54 54 55
70 70 68 65 66 66 72 75 71 64 53 58 59 63 61 63 67 68 68 70 69 67 64 61 62 61 62 63 62 60 62 61 65 65 59 61 61 59 61 59 59 57 60
70 72 73 74 76 77 76 72 71 72 67 61 59 58 61 63 63 63 62 64 67 68 70 68 65 65 65 63 63 63 62 64 65 68 66 65 64 64 64 65 64 64 65
56 50 52 59 63 67 70 69 68 67 67 67 65 63 60 63 61 59 60 59 57 58 61 63 66 66 65 65 66 65 65 66 67 67 71 68 69 67 67 69 71 71 72
50 49 50 52 55 57 60 61 63 63 66 70 70 69 68 61 58 57 57 57 54 55 58 58 54 62 64 66 69 64 67 67 68 68 69 73 73 72 74 74 76 76 77
48 50 53 56 57 60 63 60 61 63 64 67 67 70 71 73 69 62 58 52 50 50 52 53 57 50 51 58 66 66 67 68 69 69 69 68 71 74 75 73 73 72 71
50 50 54 57 59 60 64 63 64 66 67 67 68 67 69 69 72 72 68 62 45 46 54 51 52 49 50 46 48 56 60 62 63 65 63 62 65 66 68 68 68 66 66
58 61 59 61 62 65 66 66 69 69 70 72 71 71 70 69 70 71 74 74 74 67 60 52 48 46 47 46 47 46 46 51 53 56 56 59 59 58 57 57 59 58 59
68 67 67 69 69 71 73 74 74 75 74 73 75 76 76 74 72 70 72 76 76 75 75 70 59 56 50 42 43 47 46 43 46 48 50 52 53 53 52 53 54 55 52
74 77 78 79 80 81 81 81 81 81 82 82 81 81 81 80 80 79 77 76 77 76 78 78 74 66 64 57 53 47 44 52 47 49 50 50 51 51 51 53 52 52 52
72 73 75 78 80 83 86 89 90 90 89 89 88 89 89 88 88 88 87 86 83 81 81 78 77 76 69 67 65 60 53 51 54 52 54 56 55 56 56 57 57 57 57
66 74 78 82 86 88 89 90 91 93 95 97 98 97 96 96 96 94 93 92 92 90 88 85 86 81 81 76 71 68 67 61 60 59 60 60 60 61 60 56 56 56 57
74 80 76 78 82 85 89 92 95 97 99 101 102 104 105 104 102 101 101 99 97 97 96 95 92 91 89 86 85 76 72 71 70 65 62 62 63 66 63 58 56 56 55
88 88 94 97 95 95 91 96 94 100 102 103 107 108 108 110 111 109 108 106 106 105 103 102 100 98 96 94 92 91 85 79 77 75 69 61 65 67 69 66 62 58 58
97 98 99 105 105 109 109 108 109 110 106 108 110 111 115 116 114 115 117 115 113 111 111 110 107 104 102 99 99 96 94 89 84 81 80 78 76 65 62 63 68 66 59
104 104 108 109 114 116 116 119 121 121 118 116 120 116 120 120 121 120 118 118 120 119 117 115 113 112 110 107 104 103 100 97 95 89 86 83 76 73 61 60 57 62 65
107 111 113 117 121 125 127 127 130 129 129 129 125 125 123 119 123 125 126 124 122 122 124 124 121 119 117 116 114 110 107 105 102 97 95 89 83 74 74 71 64 63 61
111 113 115 120 121 122 124 132 132 134 135 134 134 129 126 126 126 124 128 130 130 128 126 125 126 127 125 122 120 117 115 110 107 104 99 98 94 89 77 75 76 72 69
120 119 120 118 116 117 115 113 117 122 127 132 130 131 130 130 130 126 125 128 131 133 133 132 131 130 129 130 127 123 121 117 114 110 106 105 101 97 95 88 87 82 77
123 114 104 97 98 99 98 101 102 104 113 119 118 118 123 132 135 130 126 124 127 132 136 136 137 135 133 132 130 129 127 124 121 117 113 109 107 105 102 100 95 90 87
102 92 90 86 86 86 87 88 90 93 98 105 112 115 115 118 125 132 129 125 128 129 129 130 135 135 136 137 134 131 128 128 129 122 119 115 113 112 108 106 102 97 93
85 80 78 79 79 78 79 79 79 81 84 90 99 106 109 111 114 120 120 124 127 133 131 132 137 132 132 133 138 137 134 131 129 127 124 121 117 115 113 111 108 104 100
77 76 73 71 71 70 69 68 70 72 75 80 84 91 97 102 102 103 107 112 116 120 127 132 138 132 132 130 127 131 135 136 132 128 126 124 123 119 116 113 111 108 104
68 62 60 62 62 58 56 56 56 58 62 68 74 78 85 89 91 91 94 97 99 104 109 117 126 134 138 133 132 133 130 127 129 132 133 126 125 121 120 115 113 111 109
64 57 53 51 52 48 47 46 45 46 50 53 60 64 70 76 81 82 83 83 84 86 90 93 101 109 118 129 140 141 143 143 138 128 126 131 129 122 119 118 116 115 112

GFSSE_250_spd_237.txt.gz
Wind_Speed
64 60 63 62 66 68 67 69 71 72 73 75 72 72 72 72 74 72 68 69 70 68 68 66 64 64 62 60 61 60 61 61 60 59 57 57 57 56 56 55 55 54 53
69 69 71 62 56 64 71 78 80 80 81 77 78 79 76 76 77 77 76 73 72 72 74 73 71 69 67 66 66 65 64 64 64 62 61 61 60 61 59 59 58 56 56
74 75 78 80 82 74 59 61 70 74 78 81 83 82 82 79 79 80 79 77 77 74 74 75 76 75 75 73 70 70 68 67 65 66 65 63 64 63 62 61 61 60 59
80 80 81 82 84 84 82 76 74 73 76 80 81 82 81 81 76 79 80 76 75 70 75 79 78 80 79 80 77 74 74 73 71 69 66 66 66 67 66 64 63 64 64
72 74 77 80 80 83 86 87 88 85 84 81 83 85 79 69 71 78 81 84 82 79 74 77 78 82 83 84 82 78 78 75 74 73 72 70 68 68 68 68 67 65 66
65 67 70 72 75 78 79 81 84 89 92 96 96 95 90 89 87 79 68 72 80 85 88 82 77 78 82 80 83 84 83 81 79 77 78 74 72 70 69 69 69 68 66
63 65 66 68 72 75 78 79 80 81 85 89 91 92 94 93 90 87 82 81 78 73 74 77 79 76 76 76 77 81 83 85 82 83 81 80 77 75 73 70 69 71 72
61 64 69 73 74 74 76 78 80 81 84 85 88 89 91 91 89 88 89 85 82 78 74 73 75 79 79 79 77 74 76 78 78 79 81 80 81 80 78 75 75 75 74
62 65 68 71 72 73 80 85 84 84 85 86 87 88 90 92 92 90 87 86 86 82 79 74 69 69 76 78 83 78 72 65 71 77 80 79 80 79 80 82 81 80 79
55 59 61 69 69 70 77 79 83 89 92 92 91 92 93 93 94 94 92 92 89 89 86 85 84 82 78 77 75 78 79 75 65 66 71 75 73 76 75 77 77 76 79
60 63 62 64 66 64 67 76 80 85 89 93 97 99 99 98 97 97 98 96 95 94 94 92 90 87 86 81 81 77 75 73 72 62 57 63 69 72 72 78 79 80 80
73 74 79 75 77 75 74 74 76 84 89 91 93 98 102 106 106 105 102 102 100 99 96 93 94 94 91 88 89 89 83 78 73 69 67 59 58 62 70 73 75 76 77
85 84 88 86 89 86 85 84 84 85 89 94 94 99 102 104 108 112 112 109 107 106 104 101 99 97 96 95 96 95 92 85 79 74 69 69 67 67 64 65 66 66 67
94 94 95 96 97 99 98 92 93 92 94 97 99 101 100 103 105 108 113 116 116 113 110 109 106 103 102 101 99 98 97 95 84 80 79 74 71 69 66 65 63 63 64
103 104 102 104 106 104 102 105 100 97 98 99 102 105 107 112 107 110 113 116 119 121 120 115 112 110 108 106 105 102 101 100 99 91 83 82 76 75 73 62 62 66 68
113 112 111 110 110 109 111 105 104 106 104 108 108 108 109 110 114 116 116 117 117 121 123 123 123 119 115 113 110 108 105 104 103 100 96 89 88 80 76 72 59 59 68
119 118 120 121 123 117 115 111 107 108 113 109 114 112 115 114 115 119 121 122 123 125 123 125 127 126 125 122 118 115 111 109 107 105 101 96 93 88 85 79 73 67 64
119 120 121 122 119 117 117 115 113 112 114 118 120 125 120 121 119 120 122 126 126 124 126 126 127 128 130 129 126 123 120 116 112 109 107 105 101 95 93 89 81 77 69
120 114 108 106 103 100 97 99 103 105 109 114 117 121 127 130 128 126 126 125 132 128 129 130 132 130 127 128 131 129 125 122 118 116 112 110 109 110 104 97 94 89 84
96 87 83 82 83 82 82 83 86 90 94 99 105 112 118 124 136 147 139 131 133 129 132 138 138 134 136 135 131 132 130 129 126 124 121 118 115 112 113 111 104 98 95
78 73 71 69 69 69 70 70 72 75 80 85 92 99 102 108 117 129 134 143 145 144 141 142 141 141 138 138 137 133 135 134 134 131 129 127 124 120 116 113 112 108 99
64 62 60 60 57 55 55 57 61 65 69 71 77 80 84 90 97 102 109 122 134 144 152 153 148 144 142 142 143 139 134 138 138 138 137 133 131 130 125 120 117 117 110
57 53 50 49 48 47 47 47 48 50 53 57 62 66 70 75 80 86 92 98 107 120 133 145 146 152 150 143 143 142 143 140 142 140 139 138 136 135 132 128 124 121 119
43 39 37 34 35 35 34 35 35 38 42 44 47 49 52 58 64 70 76 83 90 98 104 114 129 142 149 156 148 146 142 145 142 141 140 139 140 139 136 134 131 127 123
36 37 38 36 34 33 32 30 31 30 30 34 37 40 41 43 47 54 60 66 73 80 87 94 103 112 124 134 147 151 151 145 147 147 142 142 140 139 141 137 133 130 127
42 41 39 37 35 36 35 34 32 30 29 27 25 27 29 32 35 40 46 52 58 63 70 77 86 93 100 109 120 137 147 152 149 150 147 142 143 144 141 138 136 134 132

GFSSE_250_spd_240.txt.gz
Wind_Speed
63 64 65 67 65 60 60 63 70 72 73 74 74 75 75 73 72 71 70 70 71 68 66 67 66 65 65 63 62 62 61 60 60 60 61 60 60 59 57 56 56 54 53
67 68 70 74 76 78 77 67 63 67 73 80 81 80 81 81 79 79 77 77 77 77 76 73 71 70 70 70 68 68 67 64 62 62 63 62 63 61 59 58 57 58 58
74 76 78 79 81 82 84 84 88 88 82 76 84 86 87 86 86 86 85 85 83 80 81 82 80 75 77 77 74 73 72 69 66 66 64 64 64 64 63 61 61 60 61
77 79 82 85 85 87 87 86 86 90 87 88 88 83 82 86 89 93 91 91 88 86 87 85 84 85 82 80 80 79 79 77 74 69 68 67 66 67 67 65 63 64 64
75 76 79 82 84 88 91 94 96 93 93 96 97 96 91 88 91 92 89 90 93 93 92 90 90 88 88 85 85 81 83 81 79 78 77 72 72 70 69 67 67 66 64
71 75 78 80 82 84 85 87 88 91 97 100 102 101 100 96 94 90 92 83 89 92 96 95 95 91 90 89 89 86 85 84 83 81 78 78 77 75 74 73 71 67 66
69 72 73 75 77 79 82 85 85 87 90 92 95 98 101 104 106 106 99 98 95 89 89 95 96 97 95 91 88 89 89 88 87 86 84 84 83 80 78 75 74 73 72
59 65 69 74 79 83 84 85 88 90 90 90 91 93 95 98 101 103 105 107 105 102 99 102 99 98 98 96 94 91 89 90 91 90 85 85 84 83 81 78 78 76 74
47 49 56 64 70 77 78 82 89 95 95 96 95 94 94 95 98 100 101 99 101 103 99 100 102 103 102 100 98 100 98 95 92 90 89 87 86 85 84 83 82 80 79
58 62 60 61 67 66 75 75 80 86 92 96 100 101 103 98 98 99 100 101 101 102 100 96 96 97 97 100 102 99 98 96 92 92 89 87 87 84 84 82 82 80 80
73 73 78 75 74 73 77 73 80 81 81 91 98 104 105 107 105 103 102 103 103 103 101 99 100 96 94 93 98 97 101 98 95 92 89 89 88 85 85 83 81 83 81
90 89 87 90 91 88 88 86 83 83 85 89 91 97 100 108 109 112 110 109 107 106 105 103 103 100 100 100 96 96 95 95 96 96 92 88 81 82 81 85 84 82 79
94 96 98 98 100 101 102 96 94 93 96 93 97 97 101 100 109 115 115 116 114 113 109 108 109 105 102 101 102 99 99 94 93 95 93 90 86 82 78 80 80 74 75
104 105 106 106 107 104 103 102 100 101 99 101 101 106 104 107 110 112 114 117 119 118 117 116 112 110 108 105 105 103 101 102 100 92 89 92 86 84 78 74 72 72 72
113 114 115 114 113 109 110 110 105 105 106 104 108 110 111 115 113 117 123 122 123 121 122 121 121 119 115 113 110 110 109 108 107 105 101 96 91 87 83 78 75 68 67
118 120 120 120 122 117 115 114 110 110 110 112 112 115 118 117 123 120 124 129 130 127 126 126 126 125 125 120 115 113 112 113 110 109 105 100 96 90 88 84 79 74 73
125 123 120 115 112 108 107 110 110 109 116 113 117 119 122 131 124 130 130 129 133 135 134 131 129 126 128 127 125 120 115 115 113 111 109 108 108 104 96 90 85 83 76
115 106 98 91 89 89 90 91 92 96 99 104 109 111 124 125 137 144 139 138 138 139 143 140 136 136 133 131 130 128 123 120 118 114 111 109 109 104 103 99 91 87 83
85 77 74 72 71 71 73 75 77 81 85 89 93 98 104 112 123 134 149 136 145 138 145 147 144 144 141 137 134 134 134 128 123 120 117 117 111 110 104 104 102 94 88
62 60 58 58 57 56 57 56 58 62 68 72 77 83 89 95 101 109 129 135 143 146 151 150 148 146 144 144 144 141 138 134 131 125 125 121 118 115 113 105 105 100 96
59 57 56 54 52 49 49 49 48 47 49 54 60 65 72 79 86 91 97 106 121 134 151 154 157 153 149 149 150 146 143 140 137 135 130 127 124 120 117 114 108 107 101
50 46 46 46 47 45 45 45 43 41 42 42 45 50 56 61 68 75 83 90 98 106 123 141 151 159 158 157 152 153 148 147 142 138 139 137 131 125 123 120 116 113 113
43 42 41 42 41 39 39 41 45 44 40 38 39 40 41 47 53 60 67 76 84 91 100 111 127 149 161 160 157 156 153 150 149 146 143 139 139 134 131 127 124 119 116
35 37 35 34 35 35 36 39 39 38 38 36 34 35 36 36 40 46 53 62 70 77 83 92 103 117 138 161 161 163 156 154 152 150 148 144 142 142 140 135 131 128 124
30 34 36 39 42 41 40 38 40 40 37 34 31 29 30 31 32 35 40 48 57 65 71 77 85 95 106 118 149 157 161 160 158 154 154 149 148 145 144 143 139 134 129
36 32 37 42 50 44 42 43 42 36 35 36 33 27 24 24 26 27 30 34 41 50 59 65 72 78 86 97 108 128 148 156 155 161 157 155 152 148 146 144 145 141 138

GFSSE_250_spd_246.txt.gz
Wind_Speed
60 62 63 65 67 69 73 75 77 77 74 66 71 76 78 77 76 76 75 73 71 71 71 72 71 71 68 65 67 66 64 63 61 61 59 59 61 61 58 57 55 53 54
70 70 72 72 72 74 75 78 80 82 85 85 77 74 77 80 83 83 81 80 80 79 77 77 75 75 74 71 71 70 69 69 66 66 65 65 63 63 61 60 60 59 57
76 78 80 80 82 83 83 84 84 86 86 87 88 88 83 80 82 84 87 88 85 84 84 83 81 81 79 78 76 76 75 74 70 67 68 68 68 67 65 62 61 61 60
76 79 83 85 87 90 92 93 93 93 93 95 96 95 96 96 94 92 89 90 89 90 88 88 87 88 85 84 82 81 80 79 76 75 73 71 72 71 70 67 65 63 63
76 78 79 83 87 89 93 97 100 101 102 102 102 102 102 101 103 101 101 97 94 96 93 93 92 91 90 90 90 88 87 85 82 81 79 76 76 75 74 73 71 70 67
75 78 82 83 85 88 91 94 97 102 105 107 110 112 110 108 107 107 107 108 106 101 97 97 95 94 94 95 96 96 93 91 89 87 85 83 80 79 80 79 77 74 72
68 68 74 78 80 85 89 92 97 99 102 106 110 114 113 114 116 114 111 112 111 112 111 108 103 102 101 104 101 98 99 96 94 93 91 89 86 84 83 83 83 80 77
60 68 71 77 80 82 85 91 91 96 104 106 108 112 115 118 119 120 122 120 118 117 117 116 113 112 109 110 107 105 102 99 99 99 96 94 92 88 88 87 85 85 85
61 66 69 73 79 81 86 83 87 98 104 105 108 114 114 115 122 124 125 124 124 124 121 121 119 118 116 116 114 112 109 105 104 103 99 99 97 94 93 93 92 90 87
71 72 74 78 82 84 89 87 94 94 98 104 106 114 118 119 122 118 124 128 129 128 128 126 124 122 120 118 119 119 116 114 112 108 103 101 99 101 95 95 96 95 93
81 83 85 87 91 92 93 96 98 105 106 106 114 113 117 120 121 125 128 125 128 131 134 132 130 129 125 121 121 120 121 119 116 113 110 109 105 101 97 95 96 97 95
88 91 94 95 99 97 101 101 104 105 109 115 118 117 121 123 128 130 130 130 132 133 135 135 136 131 131 129 124 126 125 123 121 119 117 112 111 110 107 101 99 97 95
93 97 101 104 108 105 103 104 104 106 109 112 121 127 126 128 128 130 134 137 137 136 138 138 136 136 135 133 133 132 130 130 129 124 122 118 113 114 114 109 105 99 98
97 101 106 111 113 110 105 103 101 99 110 110 123 129 133 136 139 135 141 137 139 139 141 140 141 141 137 136 135 135 135 131 131 130 128 126 116 115 117 112 108 107 101
105 105 106 107 105 97 91 84 84 85 88 93 101 106 139 132 137 145 143 144 145 145 144 143 146 145 143 140 138 137 137 135 132 129 131 130 126 120 117 118 108 105 104
106 106 101 94 79 72 66 63 62 67 72 76 80 83 90 107 128 135 146 150 149 151 148 147 144 149 148 145 141 141 138 137 135 132 130 128 127 125 117 113 107 103 99
96 86 74 62 53 48 47 50 47 48 48 55 65 71 75 79 84 103 122 142 149 153 153 151 148 150 151 149 148 145 145 141 137 136 131 128 127 124 122 113 102 103 102
73 58 43 39 39 44 50 50 48 49 47 47 48 53 59 67 75 79 85 101 134 133 152 162 162 152 152 151 150 151 147 147 143 139 135 129 128 126 122 117 112 110 102
48 34 37 43 45 45 43 45 47 50 48 47 47 46 48 52 58 64 71 78 95 106 128 148 156 164 157 154 154 153 153 152 148 144 140 134 129 128 126 122 118 113 112
31 31 38 37 30 38 36 38 42 42 46 47 48 45 42 44 47 51 57 64 72 83 96 115 138 158 164 165 163 159 153 153 151 150 144 141 136 130 129 128 125 118 112
29 31 38 27 38 35 37 37 37 38 39 44 46 46 45 43 41 43 47 52 58 62 74 91 111 124 144 153 163 163 159 156 152 152 150 147 142 139 135 133 130 125 115
27 28 38 41 34 32 33 35 34 34 34 39 39 43 43 43 43 42 43 45 47 52 59 69 85 100 117 141 149 164 167 162 155 153 153 150 148 146 142 138 134 128 125
29 28 29 30 35 30 29 31 34 36 35 39 43 40 39 40 40 42 43 39 41 42 49 55 62 79 97 115 134 154 165 163 165 159 156 152 151 150 149 146 142 135 130
28 29 29 30 31 34 35 36 38 34 37 39 44 48 47 41 39 39 40 39 37 37 41 47 52 60 77 95 108 125 151 156 165 165 163 159 155 153 148 152 149 145 139
31 30 29 32 37 40 33 31 32 34 37 40 43 48 49 49 43 37 37 37 40 37 38 40 45 51 61 77 92 109 126 146 153 160 162 165 163 156 153 152 155 151 147
30 33 34 36 40 39 38 40 40 40 44 45 46 47 50 51 48 39 37 35 37 39 36 36 39 45 52 64 76 92 106 118 136 150 156 166 167 159 158 155 154 155 154